N222HL KCMH-KMKE

Flight info

Callsign N222HL
Flight time 1h 3m
Altitude 40000
Route PKACZ TARRY FWA GIJ BRAVE PETTY
Aircraft CL60/M-SBDE1E2E3FGHIJ1J4J5J7M3RWXYZ/LB1V1D1

Departure

Time 2026-05-07 23:33
Airport John Glenn Columbus International Airport (KCMH)

Arrival

Time 2026-05-08 00:37
Airport General Mitchell International Airport (KMKE)
Time Latitude Longitude Altitude Speed Heading
2026-05-07 23:10 39.99069 -82.89307 810 ft 0 kts 274°
2026-05-07 23:31 39.99072 -82.89346 810 ft 11 kts 278°
2026-05-07 23:31 39.99111 -82.89415 809 ft 9 kts 357°
2026-05-07 23:31 39.99163 -82.89360 811 ft 11 kts 82°
2026-05-07 23:31 39.99156 -82.89157 812 ft 37 kts 95°
2026-05-07 23:32 39.99135 -82.88785 812 ft 41 kts 93°
2026-05-07 23:32 39.99114 -82.88422 812 ft 31 kts 95°
2026-05-07 23:32 39.99156 -82.88237 812 ft 14 kts
2026-05-07 23:32 39.99220 -82.88330 812 ft 16 kts 276°
2026-05-07 23:33 39.99236 -82.88602 812 ft 65 kts 274°
2026-05-07 23:33 39.99294 -82.89598 841 ft 148 kts 278°
2026-05-07 23:33 39.99378 -82.91086 1366 ft 181 kts 277°
2026-05-07 23:33 39.99446 -82.92759 2245 ft 198 kts 276°
2026-05-07 23:34 39.99534 -82.94684 3083 ft 225 kts 276°
2026-05-07 23:34 39.99622 -82.96712 4249 ft 231 kts 276°
2026-05-07 23:34 39.99726 -82.98798 4944 ft 236 kts 275°
2026-05-07 23:34 39.99815 -83.00925 4990 ft 230 kts 275°
2026-05-07 23:35 39.99898 -83.02983 4990 ft 227 kts 275°
2026-05-07 23:35 39.99987 -83.05108 5141 ft 248 kts 275°
2026-05-07 23:35 40.00058 -83.07310 6515 ft 247 kts 273°
2026-05-07 23:35 40.00113 -83.09418 8220 ft 232 kts 274°
2026-05-07 23:36 40.00168 -83.11440 9444 ft 236 kts 275°
2026-05-07 23:36 40.00230 -83.13618 10453 ft 249 kts 275°
2026-05-07 23:36 40.00290 -83.15863 11603 ft 254 kts 275°
2026-05-07 23:36 40.00354 -83.18188 12515 ft 264 kts 275°
2026-05-07 23:37 40.00417 -83.20569 12913 ft 265 kts 275°
2026-05-07 23:37 40.00478 -83.22951 13000 ft 262 kts 275°
2026-05-07 23:37 40.00539 -83.25322 13002 ft 258 kts 275°
2026-05-07 23:37 40.00598 -83.27651 12999 ft 257 kts 275°
2026-05-07 23:38 40.00660 -83.29996 13110 ft 272 kts 276°
2026-05-07 23:38 40.00723 -83.32465 14234 ft 274 kts 276°
2026-05-07 23:38 40.00782 -83.34868 15562 ft 267 kts 275°
2026-05-07 23:38 40.00841 -83.37231 16638 ft 265 kts 275°
2026-05-07 23:39 40.00900 -83.39605 17555 ft 267 kts 275°
2026-05-07 23:39 40.00960 -83.42014 18434 ft 269 kts 275°
2026-05-07 23:39 40.01020 -83.44443 19308 ft 269 kts 274°
2026-05-07 23:39 40.01078 -83.46855 20175 ft 268 kts 274°
2026-05-07 23:40 40.01135 -83.49233 21022 ft 266 kts 273°
2026-05-07 23:40 40.01192 -83.51612 21811 ft 265 kts 273°
2026-05-07 23:40 40.01248 -83.53987 22565 ft 264 kts 272°
2026-05-07 23:40 40.01304 -83.56364 23243 ft 264 kts 273°
2026-05-07 23:41 40.01392 -83.58771 23963 ft 265 kts 275°
2026-05-07 23:41 40.01669 -83.61137 24609 ft 266 kts 278°
2026-05-07 23:41 40.01971 -83.63509 25198 ft 269 kts 278°
2026-05-07 23:41 40.02277 -83.65933 25749 ft 272 kts 277°
2026-05-07 23:42 40.02584 -83.68379 26295 ft 275 kts 278°
2026-05-07 23:42 40.02890 -83.70824 26876 ft 277 kts 277°
2026-05-07 23:42 40.03203 -83.73327 27424 ft 278 kts 277°
2026-05-07 23:42 40.03517 -83.75854 27929 ft 281 kts 277°
2026-05-07 23:43 40.03833 -83.78394 28424 ft 283 kts 277°
2026-05-07 23:43 40.04158 -83.81024 28949 ft 284 kts 277°
2026-05-07 23:43 40.04476 -83.83595 29413 ft 286 kts 277°
2026-05-07 23:43 40.04795 -83.86188 29827 ft 289 kts 277°
2026-05-07 23:44 40.05118 -83.88811 30250 ft 290 kts 278°
2026-05-07 23:44 40.05728 -83.91361 30611 ft 299 kts 291°
2026-05-07 23:44 40.07022 -83.93607 30961 ft 313 kts 303°
2026-05-07 23:44 40.08563 -83.95677 31300 ft 316 kts 304°
2026-05-07 23:45 40.10090 -83.97732 31657 ft 317 kts 303°
2026-05-07 23:45 40.11656 -83.99846 31967 ft 320 kts 304°
2026-05-07 23:45 40.13194 -84.01923 32273 ft 321 kts 304°
2026-05-07 23:45 40.14761 -84.04041 32579 ft 323 kts 304°
2026-05-07 23:46 40.16318 -84.06148 32846 ft 325 kts 304°
2026-05-07 23:46 40.17895 -84.08283 33111 ft 326 kts 304°
2026-05-07 23:46 40.19485 -84.10438 33331 ft 329 kts 304°
2026-05-07 23:46 40.21068 -84.12586 33536 ft 331 kts 304°
2026-05-07 23:47 40.22657 -84.14743 33747 ft 332 kts 304°
2026-05-07 23:47 40.24255 -84.16912 34020 ft 331 kts 304°
2026-05-07 23:47 40.25864 -84.19099 34281 ft 331 kts 304°
2026-05-07 23:47 40.27459 -84.21266 34541 ft 331 kts 304°
2026-05-07 23:48 40.29052 -84.23434 34771 ft 331 kts 304°
2026-05-07 23:48 40.30650 -84.25613 34997 ft 331 kts 304°
2026-05-07 23:48 40.32235 -84.27773 35237 ft 330 kts 304°
2026-05-07 23:48 40.33814 -84.29927 35428 ft 330 kts 304°
2026-05-07 23:49 40.35398 -84.32092 35573 ft 332 kts 304°
2026-05-07 23:49 40.37003 -84.34286 35776 ft 332 kts 304°
2026-05-07 23:49 40.38589 -84.36456 35966 ft 332 kts 304°
2026-05-07 23:49 40.40181 -84.38638 36080 ft 334 kts 304°
2026-05-07 23:50 40.41790 -84.40842 36246 ft 334 kts 304°
2026-05-07 23:50 40.43404 -84.43056 36407 ft 334 kts 304°
2026-05-07 23:50 40.44997 -84.45242 36531 ft 335 kts 305°
2026-05-07 23:50 40.46616 -84.47465 36671 ft 335 kts 304°
2026-05-07 23:51 40.49835 -84.51894 36869 ft 338 kts 305°
2026-05-07 23:51 40.51453 -84.54119 37031 ft 337 kts 304°
2026-05-07 23:51 40.53088 -84.56370 37172 ft 337 kts 305°
2026-05-07 23:52 40.56329 -84.60841 37331 ft 340 kts 305°
2026-05-07 23:52 40.59584 -84.65339 37501 ft 342 kts 304°
2026-05-07 23:53 40.61224 -84.67606 37624 ft 342 kts 305°
2026-05-07 23:53 40.62871 -84.69886 37762 ft 342 kts 305°
2026-05-07 23:53 40.64512 -84.72158 37892 ft 342 kts 305°
2026-05-07 23:53 40.66151 -84.74431 37969 ft 343 kts 304°
2026-05-07 23:54 40.69467 -84.79036 38146 ft 345 kts 305°
2026-05-07 23:54 40.71139 -84.81358 38277 ft 346 kts 305°
2026-05-07 23:54 40.72781 -84.83639 38404 ft 346 kts 305°
2026-05-07 23:55 40.74428 -84.85930 38540 ft 346 kts 305°
2026-05-07 23:55 40.76085 -84.88237 38661 ft 346 kts 305°
2026-05-07 23:55 40.79374 -84.92822 38893 ft 346 kts 306°
2026-05-07 23:56 40.82691 -84.97452 39097 ft 347 kts 306°
2026-05-07 23:56 40.86001 -85.02082 39267 ft 347 kts 306°
2026-05-07 23:57 40.89337 -85.06756 39376 ft 349 kts 306°
2026-05-07 23:57 40.92674 -85.11437 39563 ft 349 kts 306°
2026-05-07 23:58 40.96004 -85.16115 39704 ft 350 kts 306°
2026-05-07 23:58 40.99341 -85.20809 39905 ft 352 kts 306°
2026-05-07 23:59 41.01026 -85.23178 40046 ft 352 kts 306°
2026-05-07 23:59 41.02703 -85.25539 40081 ft 355 kts 306°
2026-05-07 23:59 41.06103 -85.30335 40071 ft 361 kts 306°
2026-05-08 00:00 41.09582 -85.35247 40057 ft 367 kts 306°
2026-05-08 00:00 41.13112 -85.40240 40063 ft 373 kts 306°
2026-05-08 00:01 41.16698 -85.45319 40056 ft 378 kts 307°
2026-05-08 00:01 41.20301 -85.50430 40034 ft 383 kts 307°
2026-05-08 00:02 41.23957 -85.55627 40029 ft 387 kts 307°
2026-05-08 00:02 41.27644 -85.60874 40054 ft 390 kts 307°
2026-05-08 00:03 41.31369 -85.66186 40051 ft 393 kts 306°
2026-05-08 00:03 41.35111 -85.71532 40056 ft 396 kts 307°
2026-05-08 00:04 41.38852 -85.76886 40055 ft 398 kts 307°
2026-05-08 00:04 41.42680 -85.82373 40056 ft 400 kts 307°
2026-05-08 00:05 41.46460 -85.87802 40057 ft 400 kts 307°
2026-05-08 00:05 41.50236 -85.93236 40052 ft 400 kts 307°
2026-05-08 00:06 41.54006 -85.98671 40039 ft 400 kts 307°
2026-05-08 00:06 41.57796 -86.04145 40051 ft 399 kts 307°
2026-05-08 00:07 41.61557 -86.09589 40040 ft 400 kts 307°
2026-05-08 00:07 41.65323 -86.15050 40028 ft 400 kts 307°
2026-05-08 00:08 41.69138 -86.20592 40025 ft 401 kts 307°
2026-05-08 00:08 41.72915 -86.26088 40018 ft 401 kts 307°
2026-05-08 00:09 41.76714 -86.31580 40039 ft 399 kts 310°
2026-05-08 00:09 41.78766 -86.33965 40036 ft 388 kts 315°
2026-05-08 00:09 41.80824 -86.36180 39986 ft 374 kts 314°
2026-05-08 00:10 41.82821 -86.38345 39798 ft 364 kts 314°
2026-05-08 00:10 41.84767 -86.40460 39457 ft 359 kts 314°
2026-05-08 00:10 41.86702 -86.42568 39002 ft 356 kts 314°
2026-05-08 00:10 41.88600 -86.44639 38562 ft 354 kts 314°
2026-05-08 00:11 41.90509 -86.46724 38045 ft 353 kts 314°
2026-05-08 00:11 41.92424 -86.48817 37613 ft 352 kts 314°
2026-05-08 00:11 41.94289 -86.50858 37191 ft 351 kts 314°
2026-05-08 00:11 41.96198 -86.52949 36750 ft 350 kts 314°
2026-05-08 00:12 41.98051 -86.54979 36343 ft 348 kts 314°
2026-05-08 00:12 41.99925 -86.57034 35942 ft 346 kts 314°
2026-05-08 00:12 42.01774 -86.59064 35498 ft 345 kts 314°
2026-05-08 00:12 42.03622 -86.61094 35073 ft 342 kts 314°
2026-05-08 00:13 42.05462 -86.63117 34577 ft 342 kts 314°
2026-05-08 00:13 42.07290 -86.65129 34084 ft 342 kts 313°
2026-05-08 00:13 42.09161 -86.67190 33509 ft 339 kts 313°
2026-05-08 00:13 42.10954 -86.69164 32883 ft 337 kts 313°
2026-05-08 00:14 42.12759 -86.71157 32281 ft 335 kts 313°
2026-05-08 00:14 42.14576 -86.73160 31765 ft 330 kts 314°
2026-05-08 00:14 42.16324 -86.75089 31214 ft 326 kts 313°
2026-05-08 00:14 42.18073 -86.77023 30586 ft 323 kts 314°
2026-05-08 00:15 42.19804 -86.78938 29940 ft 320 kts 313°
2026-05-08 00:15 42.21495 -86.80810 29277 ft 318 kts 314°
2026-05-08 00:15 42.23199 -86.82700 28594 ft 316 kts 315°
2026-05-08 00:15 42.24874 -86.84557 27967 ft 313 kts 315°
2026-05-08 00:16 42.26563 -86.86431 27291 ft 311 kts 315°
2026-05-08 00:16 42.28223 -86.88275 26642 ft 309 kts 315°
2026-05-08 00:16 42.29871 -86.90107 25945 ft 308 kts 315°
2026-05-08 00:16 42.31506 -86.91926 25310 ft 305 kts 316°
2026-05-08 00:17 42.33140 -86.93745 24629 ft 304 kts 316°
2026-05-08 00:17 42.34760 -86.95548 23975 ft 301 kts 317°
2026-05-08 00:17 42.36357 -86.97328 23345 ft 299 kts 317°
2026-05-08 00:17 42.37954 -86.99109 22815 ft 293 kts 317°
2026-05-08 00:18 42.39489 -87.00819 22438 ft 285 kts 316°
2026-05-08 00:18 42.41031 -87.02543 22038 ft 289 kts 316°
2026-05-08 00:18 42.42571 -87.04266 21669 ft 292 kts 316°
2026-05-08 00:18 42.44135 -87.06016 21277 ft 292 kts 316°
2026-05-08 00:19 42.45709 -87.07777 20886 ft 291 kts 316°
2026-05-08 00:19 42.47263 -87.09517 20505 ft 290 kts 316°
2026-05-08 00:19 42.48801 -87.11240 20116 ft 289 kts 316°
2026-05-08 00:19 42.50347 -87.12973 19733 ft 288 kts 316°
2026-05-08 00:20 42.51878 -87.14690 19360 ft 287 kts 316°
2026-05-08 00:20 42.53423 -87.16425 18974 ft 287 kts 316°
2026-05-08 00:20 42.54958 -87.18148 18599 ft 285 kts 316°
2026-05-08 00:20 42.56468 -87.19846 18230 ft 284 kts 316°
2026-05-08 00:21 42.57999 -87.21568 17848 ft 282 kts 316°
2026-05-08 00:21 42.59486 -87.23241 17489 ft 281 kts 316°
2026-05-08 00:21 42.60984 -87.24927 17148 ft 279 kts 316°
2026-05-08 00:21 42.62484 -87.26617 16757 ft 280 kts 317°
2026-05-08 00:22 42.63962 -87.28284 16403 ft 278 kts 317°
2026-05-08 00:22 42.65451 -87.29964 16029 ft 278 kts 316°
2026-05-08 00:22 42.66934 -87.31637 15649 ft 273 kts 316°
2026-05-08 00:22 42.68385 -87.33275 15309 ft 273 kts 317°
2026-05-08 00:23 42.69815 -87.34983 14924 ft 271 kts 309°
2026-05-08 00:23 42.70869 -87.37071 14568 ft 268 kts 300°
2026-05-08 00:23 42.71816 -87.39211 14219 ft 267 kts 300°
2026-05-08 00:23 42.72769 -87.41379 13867 ft 267 kts 300°
2026-05-08 00:24 42.73720 -87.43544 13499 ft 265 kts 300°
2026-05-08 00:24 42.74646 -87.45648 13091 ft 259 kts 300°
2026-05-08 00:24 42.75572 -87.47744 12452 ft 259 kts 300°
2026-05-08 00:24 42.76501 -87.49836 11798 ft 259 kts 300°
2026-05-08 00:25 42.77425 -87.51902 11204 ft 257 kts 300°
2026-05-08 00:25 42.78356 -87.53968 10669 ft 256 kts 300°
2026-05-08 00:25 42.79271 -87.55997 10255 ft 253 kts 300°
2026-05-08 00:25 42.80197 -87.58054 9814 ft 252 kts 300°
2026-05-08 00:26 42.81095 -87.60065 9374 ft 250 kts 300°
2026-05-08 00:26 42.82002 -87.62096 8899 ft 250 kts 300°
2026-05-08 00:26 42.82893 -87.64104 8440 ft 250 kts 300°
2026-05-08 00:26 42.83775 -87.66110 8008 ft 248 kts 300°
2026-05-08 00:27 42.84660 -87.68131 7547 ft 248 kts 300°
2026-05-08 00:27 42.85541 -87.70151 7115 ft 246 kts 300°
2026-05-08 00:27 42.86391 -87.72111 6936 ft 243 kts 300°
2026-05-08 00:27 42.87264 -87.74120 6924 ft 245 kts 300°
2026-05-08 00:28 42.88130 -87.76109 6930 ft 246 kts 300°
2026-05-08 00:28 42.89121 -87.78027 6935 ft 248 kts 315°
2026-05-08 00:28 42.90646 -87.79077 6861 ft 248 kts 345°
2026-05-08 00:28 42.92376 -87.79000 6369 ft 258 kts
2026-05-08 00:29 42.94150 -87.78549 5892 ft 259 kts
2026-05-08 00:29 42.95929 -87.78085 5415 ft 259 kts
2026-05-08 00:29 42.97695 -87.77638 4990 ft 258 kts
2026-05-08 00:29 42.99462 -87.77216 4557 ft 257 kts
2026-05-08 00:30 43.01206 -87.76813 4122 ft 255 kts
2026-05-08 00:30 43.02954 -87.76421 3669 ft 254 kts
2026-05-08 00:30 43.04683 -87.76053 3236 ft 253 kts
2026-05-08 00:30 43.06411 -87.75710 2966 ft 247 kts
2026-05-08 00:31 43.08123 -87.75399 2924 ft 250 kts
2026-05-08 00:31 43.09860 -87.75193 2924 ft 248 kts 354°
2026-05-08 00:31 43.11397 -87.75974 2934 ft 228 kts 319°
2026-05-08 00:31 43.12214 -87.77708 2932 ft 216 kts 283°
2026-05-08 00:32 43.12406 -87.79757 2933 ft 218 kts 275°
2026-05-08 00:32 43.12507 -87.81843 2927 ft 219 kts 275°
2026-05-08 00:32 43.12541 -87.83906 2921 ft 218 kts 263°
2026-05-08 00:32 43.12023 -87.85780 2935 ft 203 kts 241°
2026-05-08 00:33 43.10994 -87.86925 2923 ft 197 kts 198°
2026-05-08 00:33 43.09606 -87.87086 2942 ft 201 kts 182°
2026-05-08 00:33 43.08232 -87.87185 2948 ft 193 kts 187°
2026-05-08 00:33 43.06904 -87.87391 2925 ft 191 kts 189°
2026-05-08 00:34 43.05576 -87.87618 2704 ft 193 kts 189°
2026-05-08 00:34 43.04255 -87.87844 2454 ft 188 kts 188°
2026-05-08 00:34 43.02974 -87.88064 2192 ft 179 kts 187°
2026-05-08 00:34 43.01824 -87.88261 1944 ft 157 kts 187°
2026-05-08 00:35 43.00728 -87.88449 1755 ft 158 kts 186°
2026-05-08 00:35 42.99647 -87.88635 1536 ft 149 kts 186°
2026-05-08 00:35 42.98665 -87.88806 1352 ft 137 kts 185°
2026-05-08 00:35 42.97738 -87.88965 1139 ft 133 kts 184°
2026-05-08 00:36 42.96830 -87.89120 954 ft 130 kts 184°
2026-05-08 00:36 42.95934 -87.89270 788 ft 129 kts 183°
2026-05-08 00:36 42.95065 -87.89423 674 ft 118 kts 184°
2026-05-08 00:36 42.94461 -87.89519 674 ft 51 kts 187°
2026-05-08 00:37 42.94160 -87.89588 679 ft 30 kts 202°
2026-05-08 00:37 42.94041 -87.89722 680 ft 12 kts 250°
2026-05-08 00:37 42.94034 -87.89750 681 ft 0 kts 253°
2026-05-08 00:38 42.94120 -87.89882 682 ft 15 kts 352°
2026-05-08 00:38 42.94216 -87.89903 680 ft 12 kts 352°
2026-05-08 00:38 42.94245 -87.89910 680 ft 0 kts 349°
2026-05-08 00:38 42.94248 -87.89911 680 ft 0 kts 349°
2026-05-08 00:39 42.94250 -87.89912 680 ft 0 kts 349°
2026-05-08 00:39 42.94252 -87.89912 680 ft 0 kts 349°
2026-05-08 00:39 42.94261 -87.89914 680 ft 3 kts 349°
2026-05-08 00:39 42.94295 -87.89922 680 ft 6 kts 350°
2026-05-08 00:40 42.94375 -87.89943 680 ft 15 kts 349°
2026-05-08 00:40 42.94471 -87.89925 679 ft 14 kts 65°
2026-05-08 00:40 42.94513 -87.89778 676 ft 17 kts 71°
2026-05-08 00:40 42.94580 -87.89661 675 ft 14 kts 15°
2026-05-08 00:41 42.94694 -87.89629 673 ft 18 kts 12°
2026-05-08 00:41 42.94829 -87.89604 673 ft 20 kts
2026-05-08 00:41 42.94986 -87.89584 670 ft 24 kts
2026-05-08 00:41 42.95160 -87.89555 672 ft 22 kts
2026-05-08 00:42 42.95319 -87.89526 673 ft 22 kts
2026-05-08 00:42 42.95482 -87.89500 673 ft 24 kts
2026-05-08 00:42 42.95607 -87.89516 675 ft 14 kts 311°
2026-05-08 00:42 42.95710 -87.89574 676 ft 18 kts 343°
2026-05-08 00:43 42.95782 -87.89645 677 ft 0 kts 275°